Weather History for Tonopah, NV

Change the Weather History Date:

Wednesday, February 12, 2014

  Actual Average Record
Temperature  
Mean Temperature 46 °F 36 °F  
Max Temperature 62 °F 48 °F 65 °F (1971)
Min Temperature 29 °F 24 °F 3 °F (1978)
Degree Days  
Heating Degree Days 19 29  
Month to date heating degree days 364 358  
Since 1 July heating degree days 3437 3609  
Cooling Degree Days 0 0  
Month to date cooling degree days 0 0  
Year to date cooling degree days 0 0  
Moisture  
Dew Point 17 °F    
Average Humidity 38    
Maximum Humidity 58    
Minimum Humidity 17    
Precipitation  
Precipitation 0.00 in 0.02 in 0.17 in (2001)
Month to date precipitation T 0.20  
Year to date precipitation 0.11 0.69  
Sea Level Pressure  
Sea Level Pressure 30.18 in    
Wind  
Wind Speed 5 mph (North)    
Max Wind Speed 12 mph    
Max Gust Speed 14 mph    
Visibility 10 miles    
Events      
T = Trace of Precipitation, MM = Missing Value Source: NWS Daily Summary

Daily Weather History Graph

Daily Weather History Graph

Search for Another Location

Airport:

Trip Planner

Search our weather history database for the weather conditions in past years. The results will help you decide how hot, cold, wet, or windy it might be!

Date:

Astronomy

Feb. 12, 2014 Rise Set
Actual Time 6:41 AM PST 5:23 PM PST
Civil Twilight 6:14 AM PST 5:51 PM PST
Nautical Twilight 5:43 AM PST 6:22 PM PST
Astronomical Twilight 5:13 AM PST 6:52 PM PST
Moon 3:42 PM PST (2/12) 5:00 AM PST (2/12)
Length of Visible Light 11h 36m
Length of Day
10h 42m
Waxing Gibbous, 96% of the Moon is Illuminated
Feb 12
Waxing Gibbous
Feb 14
Full
Feb 22
Last Quarter
Mar 1
New
Mar 8
First Quarter

Hourly Weather History & Observations

Time (PST) Temp. Windchill Dew Point Humidity Pressure Visibility Wind Dir Wind Speed Gust Speed Precip Events Conditions
12:56 AM 36.0 °F 31.1 °F 18.0 °F 48% 30.18 in 10.0 mi NNE 5.8 mph - N/A   Mostly Cloudy
1:56 AM 33.1 °F 27.7 °F 17.1 °F 52% 30.20 in 10.0 mi NNE 5.8 mph - N/A   Scattered Clouds
2:56 AM 32.0 °F 25.6 °F 18.0 °F 56% 30.20 in 10.0 mi NNE 6.9 mph - N/A   Scattered Clouds
3:56 AM 32.0 °F 25.6 °F 17.1 °F 54% 30.19 in 10.0 mi North 6.9 mph - N/A   Clear
4:56 AM 32.0 °F 25.6 °F 17.1 °F 54% 30.21 in 10.0 mi North 6.9 mph - N/A   Clear
5:56 AM 30.9 °F 23.5 °F 18.0 °F 59% 30.25 in 10.0 mi North 8.1 mph - N/A   Clear
6:56 AM 28.9 °F 20.4 °F 16.0 °F 58% 30.26 in 10.0 mi North 9.2 mph - N/A   Clear
7:56 AM 37.9 °F 32.7 °F 19.9 °F 48% 30.25 in 10.0 mi North 6.9 mph - N/A   Clear
8:56 AM 42.1 °F 39.2 °F 19.9 °F 41% 30.26 in 10.0 mi North 4.6 mph - N/A   Clear
9:56 AM 46.9 °F - 15.1 °F 28% 30.25 in 10.0 mi Calm Calm - N/A   Clear
10:56 AM 51.1 °F - 12.9 °F 22% 30.23 in 10.0 mi Calm Calm - N/A   Clear
11:56 AM 55.9 °F - 14.0 °F 19% 30.18 in 10.0 mi Variable 4.6 mph - N/A   Clear
12:56 PM 59.0 °F - 15.1 °F 18% 30.12 in 10.0 mi South 8.1 mph - N/A   Clear
1:56 PM 60.1 °F - 17.1 °F 19% 30.10 in 10.0 mi SSW 5.8 mph - N/A   Clear
2:56 PM 62.1 °F - 17.1 °F 18% 30.08 in 10.0 mi South 4.6 mph - N/A   Clear
3:56 PM 62.1 °F - 18.0 °F 18% 30.09 in 10.0 mi South 4.6 mph - N/A   Clear
4:56 PM 57.9 °F - 17.1 °F 20% 30.12 in 10.0 mi East 4.6 mph - N/A   Clear
5:56 PM 50.0 °F - 17.1 °F 27% 30.14 in 10.0 mi Calm Calm - N/A   Clear
6:56 PM 48.0 °F - 17.1 °F 29% 30.18 in 10.0 mi North 5.8 mph - N/A   Clear
7:56 PM 45.0 °F 43.5 °F 18.0 °F 34% 30.16 in 10.0 mi North 3.5 mph - N/A   Clear
8:56 PM 41.0 °F - 18.0 °F 40% 30.17 in 10.0 mi Calm Calm - N/A   Clear
9:56 PM 39.0 °F 33.4 °F 18.0 °F 43% 30.16 in 10.0 mi North 8.1 mph - N/A   Clear
10:56 PM 37.0 °F 31.0 °F 17.1 °F 44% 30.15 in 10.0 mi North 8.1 mph - N/A   Clear
11:56 PM 34.0 °F 27.2 °F 18.0 °F 52% 30.16 in 10.0 mi North 8.1 mph - N/A   Clear